Location: Bermersbach
(48.6923°N, 8.3459°E)
Time: 04:30:29
(UTC+00:00)

Daily predictions for brighter satellites

Satellite Brightness Start Highest point End
(mag) Time Altitude Azimuth Time Altitude Azimuth Time Altitude Azimuth
ATLAS CENTAUR R/B 4.2 00:07:55 10° WSW 00:13:59 75° NNW 00:30:57 10° ENE
Cosmos 1825 2.6 00:13:02 34° SSE 00:14:22 52° E 00:18:03 10° NNE
Cosmos 540 Rocket 4.2 00:15:11 24° SSE 00:17:41 41° ESE 00:22:28 10° NE
Cosmos 990 Rocket 4.0 00:14:44 10° NNW 00:19:55 68° WSW 00:22:38 28° S
Cosmos 1408 2.6 00:19:18 41° SSW 00:20:28 74° W 00:24:10 10° N
Cosmos 1242 Rocket 3.8 00:20:31 10° N 00:23:53 36° ENE 00:26:09 18° SE
SL-16 R/B 3.0 00:19:56 16° WSW 00:24:15 46° NW 00:29:44 10° NNE
Cosmos 405 Rocket 2.5 00:23:36 39° S 00:24:51 80° E 00:28:33 10° NNE
Cosmos 1656 Rocket 3.7 00:19:54 10° NNW 00:25:39 86° ENE 00:30:16 16° SSE
Cosmos 841 Rocket 4.2 00:23:03 23° SSE 00:25:43 41° ESE 00:30:32 10° NE
Cosmos 2221 2.9 00:21:35 10° N 00:25:51 59° ENE 00:28:23 23° SSE
Cosmos 2058 3.2 00:24:22 29° SSE 00:26:11 56° E 00:30:12 10° NNE
USA 229 DEB 3.6 00:22:35 23° SW 00:26:54 86° SE 00:33:50 10° NE
USA 229 3.6 00:22:43 23° SW 00:27:00 86° SE 00:33:56 10° NE
Meteor 2-13 Rocket 4.4 00:23:59 26° SSW 00:27:39 85° W 00:33:52 10° N
Cosmos 2237 Rocket 4.3 00:23:39 10° W 00:27:52 21° NW 00:32:06 10° N
X-37B 1.4 00:28:47 34° SE 00:28:47 34° SE 00:31:02 10° ESE
Cosmos 1898 Rocket 3.5 00:28:00 10° NNW 00:33:13 65° WSW 00:36:10 25° S
Cosmos 1937 Rocket 3.5 00:28:10 10° NNW 00:33:33 87° WSW 00:37:19 20° SSE
Nadezhda 4 Rocket 4.1 00:30:48 23° S 00:34:47 69° E 00:40:52 10° NNE
Cosmos 2369 Rocket 2.4 00:30:07 10° NW 00:35:42 55° WSW 00:38:58 24° S
NOSS 3-1 (C) 3.8 00:31:11 15° WSW 00:35:44 60° NW 00:42:12 10° NE
Aureole 3 Rocket 4.0 00:33:53 10° N 00:37:35 44° ENE 00:41:59 12° SSE
YAOGAN 11 4.1 00:35:34 29° S 00:37:48 71° WSW 00:42:20 10° NNW
Cosmos 1356 4.1 00:37:29 32° WSW 00:38:34 43° WNW 00:41:51 10° N
USA 307 4.2 00:38:07 23° SSE 00:39:01 24° SE 00:42:29 10° E
SJ 16-02 3.1 00:36:08 10° NW 00:39:04 18° W 00:40:01 17° WSW
FALCON 9 DEB 4.4 00:36:51 10° WNW 00:39:50 39° N 00:42:49 10° E
CREW DRAGON DEMO-1 DEB 2.1 00:40:05 80° W 00:40:11 85° NNW 00:42:37 10° ENE
USA 215 4.1 00:38:49 10° ENE 00:45:06 51° NNW 00:51:23 10° W
NOSS 2-3 (E) 4.3 00:42:31 17° WSW 00:45:40 51° NW 00:50:39 10° NE
NOSS 3-1 (A) 3.4 00:42:41 21° SW 00:46:33 78° NW 00:53:04 10° NE
Cosmos 2263 4.3 00:43:48 10° NW 00:49:23 58° WSW 00:53:06 21° S
ATLAS 5 CENTAUR R/B 2.8 00:48:04 20° SSE 00:49:40 26° ESE 00:53:16 10° ENE
CZ-4 R/B 3.8 00:46:12 10° NNE 00:50:53 77° WNW 00:53:33 26° SSW
Helios 1B rocket 3.6 00:47:48 10° NNE 00:51:35 35° E 00:54:08 17° SSE
USA 308 3.9 00:53:26 25° S 00:54:50 31° SE 00:58:36 10° ENE
Cosmos 1633 3.4 00:53:22 22° SSE 00:55:13 42° E 00:58:35 10° NNE
ADEOS Rocket 4.1 00:48:50 10° SE 00:55:43 50° ENE 01:02:00 10° N
FALCON 9 DEB 3.9 00:53:59 10° WNW 00:57:01 48° NNE 01:00:01 10° E
CZ-3B R/B 3.6 00:48:01 10° WNW 00:57:32 47° N 01:00:41 10° ENE
UNK 4.0 00:54:25 14° SSE 00:58:18 69° ENE 01:02:56 10° N
Cosmos 1606 2.6 00:58:04 10° N 01:01:57 90° SSE 01:04:12 23° S
Helios 1A 3.5 01:00:06 27° SSW 01:01:57 43° W 01:06:00 10° NNW
FALCON 9 DEB 4.0 01:00:44 10° WNW 01:03:46 46° NNE 01:06:48 10° E
Cosmos 1570 Rocket 4.3 01:01:44 21° S 01:05:08 61° ESE 01:10:18 10° NNE
SL-16 R/B 2.5 00:59:52 12° SSE 01:05:38 90° WSW 01:11:52 10° NNW
FALCON 9 DEB 3.7 01:04:13 10° WNW 01:07:17 52° NNE 01:10:19 10° E
Cosmos 372 Rocket 3.9 01:03:16 10° NNW 01:08:32 76° WSW 01:13:10 13° SSE
USA 305 3.4 01:10:32 25° SSW 01:12:35 44° SE 01:16:38 10° ENE
USA 290 2.8 01:11:15 25° S 01:12:45 46° ESE 01:15:52 10° NE
Lacrosse 4 Rocket 1.3 01:10:45 10° NNW 01:14:53 84° ENE 01:18:55 10° SE
CZ-4C R/B 4.3 01:14:09 10° ESE 01:15:35 11° ESE 01:17:05 10° E
Cosmos 1092 Rocket 4.0 01:11:05 18° S 01:15:48 84° E 01:21:59 10° N
Cosmos 2098 Rocket 3.6 01:15:08 21° SSW 01:18:41 59° W 01:23:02 10° N
Cosmos 1763 Rocket 4.4 01:15:44 15° WSW 01:19:28 38° WNW 01:24:16 10° N
BREEZE-M R/B 3.3 01:18:11 23° SSW 01:19:54 37° SE 01:24:41 10° ENE
Resurs 1-4 Rocket 2.1 01:15:05 10° NNE 01:20:26 89° WNW 01:24:24 19° SSW
Cosmos 2208 Rocket 4.3 01:16:33 19° S 01:20:28 67° ESE 01:25:54 10° NNE
Cosmos 1437 Rocket 3.9 01:17:30 10° NNW 01:20:49 27° W 01:22:18 21° SW
USA 267 4.5 01:19:19 17° SW 01:20:49 19° WSW 01:25:12 10° W
Meteor 2-19 Rocket 4.5 01:16:27 18° S 01:21:12 89° WNW 01:27:22 10° N
Meteor 1-29 4.1 01:21:13 10° NNE 01:24:25 36° E 01:26:57 14° SSE
OE (NEXTSAT) 4.4 01:22:34 19° WSW 01:24:47 52° S 01:28:09 10° E
SL-4 R/B 2.5 01:22:35 10° WNW 01:26:16 54° N 01:29:44 10° E
Cosmos 1943 Rocket 4.1 01:26:39 10° W 01:27:57 11° W 01:29:16 10° WSW
MINOTAUR 4 R/B 4.2 01:26:32 12° SSE 01:29:48 74° ENE 01:33:21 10° N
NPP 3.7 01:26:11 10° NNE 01:31:38 90° SW 01:35:57 16° SSW
ADEOS II 2.6 01:26:52 10° NNE 01:32:04 57° E 01:36:49 12° S
NOSS 2-2 (D) 3.2 01:30:21 23° SSW 01:32:20 62° SE 01:36:02 10° NE
USA 306 3.0 01:32:05 20° SW 01:34:54 60° SE 01:39:06 10° ENE
Lacrosse 5 rocket 2.8 01:31:48 10° NW 01:35:08 35° NNE 01:38:32 10° E
Cosmos 921 Rocket 3.2 01:32:38 20° SW 01:35:27 57° WNW 01:39:35 10° NNE
Meteor 2-3 Rocket 4.1 01:31:29 12° S 01:36:38 62° E 01:42:09 10° NNE
FALCON 9 DEB 3.4 01:33:27 10° WNW 01:36:42 43° SW 01:39:56 10° SE
Cosmos 1943 3.9 01:33:25 14° SW 01:38:01 47° NW 01:43:29 10° NNE
CZ-2D R/B 2.2 01:33:57 10° N 01:39:08 66° WNW 01:43:15 16° SSW
Alouette 2 Rocket 4.4 01:36:56 10° N 01:40:22 43° ENE 01:44:14 10° SE
IDEFIX/ARIANE 42P 3.6 01:41:26 10° NNE 01:46:26 42° E 01:51:21 10° S
Cosmos 2151 3.0 01:44:56 16° SSW 01:48:11 72° W 01:52:25 10° N
Cosmos 1825 4.4 01:48:05 10° W 01:50:11 14° WNW 01:52:16 10° NNW
AQUA 3.9 01:46:28 10° N 01:51:14 72° WNW 01:55:17 14° SSW
EXPRESS MD2 4.4 01:41:55 10° WSW 01:51:19 76° SSE 01:55:43 10° ENE
Cosmos 1076 Rocket 4.3 01:49:45 16° SW 01:52:45 38° WNW 01:56:45 10° N
Cosmos 1437 4.0 01:52:37 10° NW 01:54:48 21° W 01:55:51 17° SW
Meteor 1-26 Rocket 4.4 01:49:18 10° NNW 01:55:10 87° W 02:01:09 10° S
Cosmos 1242 Rocket 4.4 01:56:01 10° NW 01:58:25 17° W 02:00:05 13° WSW
DELTA 2 R/B (1) 4.3 01:57:41 10° WSW 02:02:34 32° S 02:07:27 10° ESE
Cosmos 2221 4.5 02:00:28 10° NW 02:02:54 15° W 02:05:12 10° WSW
X-37B 1.4 02:01:28 10° W 02:04:19 31° SSW 02:07:11 10° SE
CBERS-1 4.3 02:00:39 10° NNE 02:05:48 70° ESE 02:10:55 10° S
IRS-1D 3.6 02:00:52 10° NNE 02:06:03 85° ESE 02:11:06 10° SSW
BREEZE-M DEB (TANK) 1.1 02:04:12 10° W 02:06:34 78° SSW 02:09:07 10° ESE
Cosmos 1812 3.6 02:05:58 10° N 02:09:44 51° ENE 02:13:28 10° SSE
Cosmos 1553 Rocket 4.0 02:03:42 10° NNW 02:09:59 70° W 02:16:08 10° S
NOSS 2-2 (E) 3.9 02:08:02 11° WSW 02:11:16 46° NW 02:15:07 10° NE
Cosmos 2292 Rocket 2.7 02:09:53 13° SSW 02:12:23 58° W 02:15:22 10° N
SL-08 R/B 4.4 02:09:01 10° SE 02:13:30 47° ENE 02:18:04 10° N
CREW DRAGON DEMO-1 DEB 3.7 02:11:42 10° WNW 02:14:02 37° N 02:16:21 10° ENE
Cosmos 1697 Rocket 4.4 02:09:44 10° NNW 02:15:01 39° NE 02:20:18 10° ESE
FALCON 9 DEB 2.8 02:12:35 10° WNW 02:15:43 72° SSW 02:18:50 10° SE
S3M 4.0 02:09:54 10° N 02:16:05 89° WSW 02:22:18 10° S
Cosmos 1782 2.9 02:12:40 10° NNW 02:16:39 63° W 02:20:36 10° S
USA 281 3.2 02:11:24 10° SSE 02:17:59 83° WSW 02:24:37 10° NNW
Meteor 2-14 Rocket 4.5 02:12:17 10° S 02:18:23 86° W 02:24:34 10° N
Cosmos 1271 Rocket 2.6 02:14:51 10° NNW 02:18:37 88° WSW 02:22:22 10° S
USA 307 2.9 02:14:22 10° WSW 02:18:38 83° NNW 02:22:54 10° ENE
MSX 4.3 02:13:08 10° NNE 02:18:52 60° ESE 02:24:31 10° S
NOSS 2-2 (C) 3.9 02:21:38 10° WSW 02:24:57 44° NW 02:28:43 10° NNE
CZ-4C R/B 2.9 02:22:00 10° S 02:25:26 70° WSW 02:28:55 10° NNW
Helios 1B rocket 3.9 02:23:18 10° N 02:26:41 25° WNW 02:30:02 10° WSW
USA 215 4.5 02:21:22 10° ENE 02:27:28 44° N 02:33:34 10° WNW
ERBS 2.9 02:24:39 10° SSW 02:27:40 44° SE 02:30:47 10° ENE
Cosmos 1328 Rocket 3.6 02:26:18 10° NNW 02:30:39 69° W 02:34:59 10° S
NOSS 3-2 (A) 4.2 02:24:02 10° NW 02:31:29 87° NE 02:40:00 10° SE
FALCON 9 DEB 3.2 02:29:40 10° WNW 02:32:36 40° SW 02:35:29 10° SE
ATLAS 5 CENTAUR R/B 2.3 02:30:05 10° WSW 02:33:58 44° NW 02:38:24 10° NE
USA 308 3.1 02:30:21 10° WSW 02:34:35 70° NNW 02:38:51 10° ENE
SeaSat 1 2.8 02:30:23 10° NE 02:35:19 63° ESE 02:40:11 10° SSW
Spot 1 4.5 02:31:13 10° S 02:36:15 68° WSW 02:41:07 10° NNW
FALCON 9 DEB 3.1 02:36:29 10° WNW 02:39:29 44° SSW 02:42:28 10° SE
Meteor 2-6 Rocket 4.3 02:33:36 10° NNW 02:39:33 83° W 02:45:18 10° S
ADEOS Rocket 3.9 02:34:41 10° SSW 02:41:20 38° W 02:47:28 10° NNW
FALCON 9 DEB 3.4 02:39:58 10° WNW 02:42:50 35° SW 02:45:41 10° SSE
Cosmos 1980 Rocket 4.1 02:39:37 10° NNW 02:44:46 36° NE 02:49:54 10° ESE
